QPF
0.01 0.02 0.03 0.04 0.04 0.03 0.03 0.03 0.04 0.04 0.03 0.03 0.02 0.02 0.02 0.02 0.02 0.01 0.01 0.00 0.00 0.00 0.00 0.00 0.01 0.02 0.02 0.03 0.03 0.04 0.03 0.03 0.02 0.03 0.02 0.02 0.02 0.01 0.01 0.01 0.01 0.01 0.01
0.01 0.02 0.03 0.03 0.03 0.03 0.03 0.03 0.04 0.04 0.04 0.03 0.02 0.02 0.02 0.02 0.02 0.02 0.01 0.01 0.00 0.00 0.00 0.00 0.00 0.01 0.02 0.04 0.04 0.05 0.05 0.04 0.04 0.04 0.03 0.03 0.02 0.02 0.01 0.01 0.01 0.01 0.01
0.03 0.02 0.01 0.02 0.02 0.02 0.02 0.03 0.03 0.04 0.04 0.03 0.02 0.02 0.02 0.02 0.02 0.01 0.01 0.01 0.01 0.00 0.00 0.00 0.00 0.00 0.01 0.02 0.03 0.05 0.05 0.05 0.05 0.04 0.04 0.03 0.02 0.02 0.02 0.01 0.01 0.01 0.01
0.05 0.03 0.02 0.01 0.01 0.01 0.01 0.02 0.02 0.03 0.03 0.03 0.03 0.02 0.02 0.02 0.02 0.02 0.02 0.02 0.01 0.01 0.01 0.00 0.00 0.00 0.00 0.01 0.02 0.03 0.04 0.05 0.05 0.06 0.05 0.04 0.03 0.02 0.02 0.02 0.02 0.02 0.02
0.06 0.07 0.06 0.03 0.01 0.01 0.00 0.01 0.01 0.02 0.03 0.02 0.02 0.03 0.02 0.02 0.02 0.02 0.02 0.02 0.01 0.01 0.01 0.01 0.01 0.00 0.00 0.00 0.01 0.02 0.03 0.04 0.05 0.05 0.06 0.06 0.05 0.04 0.03 0.03 0.03 0.03 0.03
0.04 0.05 0.08 0.06 0.02 0.01 0.00 0.00 0.00 0.01 0.02 0.02 0.02 0.02 0.03 0.03 0.03 0.03 0.02 0.01 0.01 0.01 0.01 0.01 0.01 0.00 0.00 0.00 0.00 0.01 0.02 0.03 0.04 0.05 0.06 0.06 0.06 0.05 0.05 0.05 0.04 0.03 0.03
0.04 0.03 0.04 0.04 0.03 0.02 0.01 0.00 0.00 0.00 0.01 0.01 0.02 0.02 0.02 0.01 0.01 0.02 0.02 0.02 0.01 0.01 0.01 0.00 0.01 0.01 0.00 0.00 0.00 0.00 0.01 0.02 0.02 0.04 0.05 0.05 0.06 0.06 0.06 0.07 0.06 0.05 0.05
0.03 0.04 0.03 0.03 0.03 0.02 0.02 0.01 0.01 0.00 0.00 0.00 0.01 0.02 0.02 0.02 0.01 0.01 0.01 0.02 0.02 0.01 0.01 0.00 0.01 0.01 0.00 0.00 0.00 0.00 0.00 0.01 0.01 0.02 0.03 0.04 0.05 0.06 0.08 0.10 0.09 0.08 0.07
0.02 0.04 0.04 0.04 0.03 0.02 0.02 0.02 0.01 0.01 0.01 0.00 0.01 0.01 0.01 0.01 0.01 0.01 0.01 0.01 0.02 0.02 0.02 0.02 0.02 0.02 0.01 0.01 0.01 0.01 0.01 0.01 0.01 0.02 0.02 0.03 0.03 0.05 0.07 0.09 0.11 0.11 0.11
0.03 0.03 0.03 0.04 0.04 0.04 0.04 0.03 0.03 0.02 0.02 0.02 0.01 0.01 0.01 0.01 0.01 0.01 0.01 0.01 0.01 0.01 0.02 0.02 0.02 0.02 0.02 0.02 0.02 0.02 0.02 0.02 0.02 0.02 0.02 0.02 0.02 0.03 0.03 0.04 0.06 0.08 0.09
0.03 0.03 0.04 0.04 0.05 0.05 0.05 0.04 0.04 0.04 0.03 0.02 0.02 0.01 0.01 0.01 0.01 0.01 0.01 0.00 0.01 0.01 0.01 0.01 0.01 0.02 0.02 0.02 0.02 0.02 0.02 0.02 0.02 0.02 0.02 0.02 0.02 0.02 0.02 0.03 0.04 0.06 0.08
0.05 0.05 0.05 0.06 0.06 0.05 0.05 0.04 0.04 0.03 0.03 0.02 0.01 0.01 0.01 0.01 0.01 0.01 0.01 0.01 0.01 0.01 0.01 0.01 0.01 0.01 0.02 0.02 0.02 0.02 0.02 0.02 0.02 0.02 0.02 0.01 0.01 0.01 0.01 0.02 0.03 0.03 0.05
0.04 0.05 0.04 0.04 0.04 0.03 0.03 0.02 0.02 0.01 0.01 0.01 0.01 0.01 0.01 0.01 0.01 0.01 0.01 0.01 0.01 0.01 0.01 0.01 0.01 0.01 0.01 0.02 0.02 0.02 0.02 0.02 0.02 0.01 0.01 0.01 0.01 0.02 0.02 0.02 0.02 0.03 0.04
0.03 0.04 0.04 0.04 0.03 0.02 0.02 0.01 0.01 0.01 0.01 0.00 0.00 0.00 0.00 0.01 0.01 0.01 0.01 0.01 0.01 0.01 0.01 0.01 0.01 0.01 0.01 0.01 0.02 0.02 0.02 0.02 0.02 0.01 0.01 0.01 0.01 0.01 0.01 0.01 0.02 0.03 0.03
0.02 0.02 0.02 0.02 0.01 0.01 0.01 0.01 0.01 0.01 0.01 0.00 0.01 0.01 0.01 0.01 0.01 0.01 0.01 0.01 0.02 0.02 0.01 0.01 0.01 0.01 0.02 0.02 0.03 0.02 0.01 0.02 0.02 0.01 0.01 0.02 0.01 0.01 0.01 0.01 0.02 0.02 0.02
0.01 0.01 0.01 0.01 0.00 0.00 0.00 0.00 0.00 0.00 0.00 0.00 0.00 0.01 0.01 0.01 0.01 0.01 0.01 0.01 0.01 0.02 0.02 0.01 0.00 0.01 0.02 0.02 0.02 0.02 0.02 0.02 0.02 0.02 0.02 0.02 0.01 0.01 0.01 0.01 0.01 0.01 0.02
0.01 0.01 0.00 0.00 0.00 0.00 0.00 0.00 0.00 0.00 0.00 0.00 0.00 0.00 0.01 0.01 0.01 0.01 0.01 0.01 0.02 0.02 0.02 0.01 0.00 0.00 0.01 0.01 0.02 0.03 0.03 0.03 0.02 0.02 0.02 0.02 0.01 0.01 0.02 0.02 0.01 0.01 0.02
0.00 0.00 0.00 0.00 0.00 0.00 0.00 0.00 0.00 0.00 0.00 0.00 0.00 0.00 0.00 0.00 0.01 0.01 0.01 0.02 0.02 0.02 0.02 0.01 0.01 0.01 0.01 0.01 0.02 0.03 0.03 0.03 0.02 0.02 0.02 0.01 0.01 0.01 0.02 0.02 0.01 0.01 0.01
0.00 0.00 0.00 0.00 0.00 0.00 0.00 0.00 0.00 0.00 0.01 0.01 0.00 0.00 0.00 0.00 0.01 0.01 0.02 0.02 0.02 0.03 0.03 0.03 0.02 0.01 0.01 0.01 0.01 0.02 0.02 0.02 0.02 0.02 0.02 0.01 0.01 0.01 0.01 0.02 0.01 0.01 0.01
0.01 0.01 0.01 0.00 0.00 0.00 0.00 0.00 0.01 0.01 0.01 0.01 0.00 0.00 0.00 0.00 0.01 0.01 0.01 0.02 0.02 0.02 0.03 0.03 0.03 0.02 0.02 0.02 0.01 0.02 0.02 0.02 0.02 0.01 0.01 0.01 0.01 0.00 0.01 0.01 0.01 0.01 0.01
0.01 0.01 0.01 0.00 0.00 0.00 0.00 0.00 0.01 0.01 0.01 0.01 0.00 0.00 0.00 0.01 0.01 0.01 0.01 0.01 0.02 0.02 0.03 0.03 0.03 0.02 0.02 0.02 0.01 0.01 0.01 0.01 0.02 0.01 0.01 0.01 0.00 0.00 0.00 0.00 0.01 0.01 0.01
0.01 0.01 0.01 0.01 0.00 0.00 0.01 0.01 0.01 0.01 0.01 0.01 0.01 0.01 0.01 0.01 0.01 0.01 0.01 0.02 0.02 0.02 0.03 0.03 0.02 0.01 0.01 0.01 0.01 0.01 0.01 0.01 0.02 0.01 0.01 0.01 0.00 0.00 0.00 0.00 0.01 0.01 0.01
0.01 0.01 0.01 0.01 0.01 0.01 0.01 0.01 0.01 0.01 0.01 0.01 0.01 0.01 0.01 0.01 0.01 0.01 0.02 0.03 0.03 0.03 0.03 0.03 0.02 0.01 0.01 0.01 0.01 0.02 0.02 0.01 0.02 0.01 0.01 0.01 0.01 0.00 0.00 0.01 0.01 0.01 0.01
0.00 0.01 0.01 0.01 0.01 0.01 0.01 0.01 0.02 0.02 0.02 0.01 0.01 0.01 0.01 0.01 0.01 0.02 0.02 0.02 0.02 0.02 0.02 0.02 0.02 0.01 0.01 0.01 0.01 0.02 0.02 0.03 0.03 0.02 0.02 0.01 0.01 0.00 0.00 0.01 0.01 0.01 0.01
0.00 0.00 0.00 0.01 0.00 0.00 0.01 0.01 0.01 0.02 0.02 0.02 0.02 0.02 0.02 0.02 0.02 0.02 0.02 0.02 0.02 0.02 0.03 0.02 0.02 0.02 0.02 0.02 0.02 0.03 0.03 0.04 0.04 0.02 0.01 0.01 0.01 0.01 0.01 0.01 0.01 0.01 0.01
0.00 0.00 0.00 0.00 0.00 0.00 0.01 0.01 0.02 0.01 0.01 0.01 0.02 0.02 0.02 0.02 0.02 0.02 0.02 0.02 0.02 0.02 0.03 0.04 0.03 0.03 0.02 0.02 0.02 0.02 0.02 0.03 0.03 0.02 0.01 0.01 0.01 0.01 0.01 0.01 0.01 0.01 0.01
MSLP
1015.61 1016.10 1016.57 1017.01 1017.41 1017.76 1018.07 1018.34 1018.57 1018.77 1018.95 1019.12 1019.29 1019.45 1019.62 1019.77 1019.92 1020.06 1020.17 1020.27 1020.35 1020.40 1020.43 1020.45 1020.43 1020.40 1020.36 1020.31 1020.24 1020.18 1020.11 1020.05 1019.99 1019.94 1019.89 1019.84 1019.79 1019.74 1019.69 1019.63 1019.57 1019.51 1019.44
1015.24 1015.76 1016.25 1016.73 1017.17 1017.57 1017.92 1018.22 1018.48 1018.69 1018.88 1019.04 1019.20 1019.34 1019.48 1019.61 1019.73 1019.84 1019.95 1020.05 1020.14 1020.22 1020.28 1020.32 1020.34 1020.34 1020.31 1020.26 1020.19 1020.12 1020.05 1019.98 1019.92 1019.88 1019.84 1019.80 1019.77 1019.72 1019.66 1019.59 1019.52 1019.44 1019.36
1014.89 1015.42 1015.95 1016.46 1016.94 1017.37 1017.76 1018.08 1018.36 1018.59 1018.78 1018.94 1019.09 1019.21 1019.31 1019.40 1019.49 1019.57 1019.65 1019.74 1019.83 1019.92 1020.01 1020.09 1020.15 1020.17 1020.17 1020.14 1020.08 1020.01 1019.95 1019.89 1019.85 1019.82 1019.80 1019.79 1019.76 1019.72 1019.66 1019.58 1019.49 1019.39 1019.29
1014.55 1015.10 1015.65 1016.19 1016.69 1017.14 1017.55 1017.89 1018.18 1018.42 1018.62 1018.79 1018.92 1019.02 1019.10 1019.16 1019.21 1019.25 1019.30 1019.36 1019.44 1019.54 1019.65 1019.76 1019.85 1019.91 1019.94 1019.93 1019.90 1019.84 1019.80 1019.76 1019.74 1019.74 1019.75 1019.77 1019.76 1019.73 1019.68 1019.59 1019.48 1019.36 1019.24
1014.20 1014.77 1015.34 1015.89 1016.40 1016.86 1017.26 1017.61 1017.91 1018.16 1018.37 1018.55 1018.69 1018.79 1018.86 1018.89 1018.91 1018.91 1018.93 1018.96 1019.03 1019.12 1019.24 1019.37 1019.49 1019.59 1019.64 1019.66 1019.65 1019.62 1019.60 1019.59 1019.60 1019.64 1019.69 1019.73 1019.76 1019.75 1019.70 1019.61 1019.49 1019.35 1019.21
1013.82 1014.42 1015.00 1015.55 1016.05 1016.50 1016.89 1017.24 1017.54 1017.80 1018.03 1018.23 1018.40 1018.52 1018.59 1018.62 1018.61 1018.59 1018.58 1018.59 1018.63 1018.72 1018.84 1018.99 1019.13 1019.25 1019.33 1019.38 1019.39 1019.39 1019.39 1019.41 1019.45 1019.53 1019.62 1019.70 1019.76 1019.78 1019.75 1019.66 1019.53 1019.37 1019.21
1013.40 1014.02 1014.61 1015.15 1015.64 1016.07 1016.45 1016.78 1017.08 1017.36 1017.62 1017.85 1018.05 1018.21 1018.31 1018.35 1018.34 1018.31 1018.28 1018.27 1018.30 1018.38 1018.51 1018.67 1018.83 1018.97 1019.08 1019.16 1019.19 1019.21 1019.23 1019.27 1019.34 1019.45 1019.57 1019.69 1019.79 1019.83 1019.81 1019.73 1019.59 1019.42 1019.23
1012.93 1013.57 1014.16 1014.70 1015.17 1015.58 1015.94 1016.27 1016.57 1016.87 1017.16 1017.44 1017.68 1017.88 1018.02 1018.09 1018.09 1018.07 1018.03 1018.02 1018.05 1018.13 1018.28 1018.45 1018.64 1018.82 1018.96 1019.06 1019.12 1019.15 1019.19 1019.24 1019.33 1019.46 1019.60 1019.75 1019.86 1019.93 1019.92 1019.84 1019.69 1019.49 1019.28
1012.40 1013.06 1013.67 1014.20 1014.67 1015.07 1015.42 1015.74 1016.05 1016.37 1016.69 1017.01 1017.30 1017.54 1017.72 1017.82 1017.85 1017.84 1017.82 1017.82 1017.87 1017.98 1018.15 1018.37 1018.60 1018.82 1019.01 1019.14 1019.23 1019.28 1019.33 1019.38 1019.47 1019.60 1019.74 1019.89 1020.01 1020.08 1020.07 1019.97 1019.80 1019.58 1019.33
1011.81 1012.49 1013.11 1013.66 1014.13 1014.53 1014.89 1015.21 1015.54 1015.88 1016.23 1016.57 1016.90 1017.17 1017.38 1017.50 1017.56 1017.58 1017.58 1017.62 1017.71 1017.87 1018.11 1018.39 1018.70 1018.99 1019.23 1019.41 1019.54 1019.61 1019.66 1019.71 1019.79 1019.89 1020.01 1020.14 1020.24 1020.28 1020.25 1020.12 1019.92 1019.65 1019.36
1011.16 1011.86 1012.51 1013.08 1013.57 1013.99 1014.36 1014.70 1015.04 1015.39 1015.76 1016.12 1016.46 1016.75 1016.97 1017.11 1017.19 1017.23 1017.28 1017.37 1017.53 1017.77 1018.09 1018.48 1018.88 1019.27 1019.60 1019.85 1020.02 1020.12 1020.17 1020.21 1020.25 1020.32 1020.40 1020.47 1020.53 1020.52 1020.44 1020.27 1020.02 1019.70 1019.34
1010.45 1011.17 1011.84 1012.44 1012.96 1013.41 1013.80 1014.17 1014.53 1014.89 1015.26 1015.63 1015.96 1016.24 1016.46 1016.61 1016.70 1016.78 1016.88 1017.03 1017.28 1017.63 1018.07 1018.57 1019.10 1019.60 1020.04 1020.37 1020.60 1020.74 1020.80 1020.82 1020.82 1020.83 1020.85 1020.86 1020.84 1020.77 1020.62 1020.39 1020.08 1019.70 1019.28
1009.67 1010.41 1011.10 1011.72 1012.28 1012.77 1013.20 1013.59 1013.97 1014.35 1014.71 1015.06 1015.38 1015.65 1015.85 1016.00 1016.11 1016.22 1016.38 1016.62 1016.97 1017.43 1018.01 1018.65 1019.32 1019.94 1020.49 1020.92 1021.21 1021.38 1021.45 1021.45 1021.41 1021.36 1021.30 1021.23 1021.13 1020.98 1020.76 1020.46 1020.08 1019.64 1019.17
1008.83 1009.57 1010.27 1010.92 1011.51 1012.04 1012.51 1012.94 1013.34 1013.72 1014.09 1014.43 1014.73 1014.98 1015.18 1015.33 1015.47 1015.63 1015.85 1016.17 1016.63 1017.22 1017.92 1018.70 1019.49 1020.24 1020.89 1021.41 1021.76 1021.97 1022.04 1022.02 1021.94 1021.82 1021.68 1021.53 1021.34 1021.11 1020.82 1020.46 1020.03 1019.54 1019.02
1007.93 1008.66 1009.37 1010.04 1010.66 1011.22 1011.73 1012.20 1012.63 1013.04 1013.42 1013.76 1014.07 1014.32 1014.52 1014.70 1014.87 1015.08 1015.38 1015.79 1016.35 1017.04 1017.86 1018.75 1019.65 1020.49 1021.22 1021.80 1022.20 1022.42 1022.50 1022.45 1022.32 1022.14 1021.93 1021.70 1021.44 1021.14 1020.79 1020.38 1019.91 1019.40 1018.85
1007.02 1007.74 1008.44 1009.12 1009.75 1010.35 1010.90 1011.41 1011.88 1012.33 1012.75 1013.12 1013.45 1013.74 1013.98 1014.20 1014.43 1014.72 1015.09 1015.58 1016.22 1017.00 1017.89 1018.85 1019.81 1020.70 1021.47 1022.07 1022.49 1022.71 1022.77 1022.70 1022.52 1022.29 1022.02 1021.72 1021.40 1021.05 1020.67 1020.23 1019.74 1019.22 1018.68
1006.15 1006.84 1007.53 1008.21 1008.87 1009.49 1010.08 1010.64 1011.17 1011.68 1012.16 1012.60 1012.99 1013.35 1013.66 1013.97 1014.28 1014.64 1015.09 1015.65 1016.35 1017.17 1018.09 1019.05 1020.01 1020.90 1021.66 1022.24 1022.63 1022.83 1022.86 1022.75 1022.53 1022.25 1021.93 1021.59 1021.23 1020.84 1020.44 1020.00 1019.52 1019.02 1018.50
1005.37 1006.05 1006.74 1007.42 1008.08 1008.73 1009.36 1009.98 1010.58 1011.17 1011.73 1012.27 1012.77 1013.22 1013.64 1014.04 1014.45 1014.90 1015.41 1016.03 1016.75 1017.57 1018.47 1019.40 1020.30 1021.12 1021.81 1022.34 1022.67 1022.82 1022.80 1022.65 1022.39 1022.07 1021.71 1021.33 1020.94 1020.55 1020.13 1019.70 1019.25 1018.78 1018.29
1004.77 1005.45 1006.13 1006.82 1007.49 1008.17 1008.85 1009.53 1010.21 1010.88 1011.55 1012.20 1012.82 1013.39 1013.93 1014.45 1014.95 1015.48 1016.05 1016.69 1017.41 1018.19 1019.02 1019.87 1020.67 1021.39 1021.97 1022.40 1022.65 1022.73 1022.66 1022.46 1022.16 1021.81 1021.42 1021.02 1020.61 1020.20 1019.79 1019.36 1018.93 1018.49 1018.04
1004.40 1005.10 1005.79 1006.48 1007.18 1007.89 1008.61 1009.34 1010.10 1010.87 1011.65 1012.41 1013.14 1013.84 1014.50 1015.12 1015.72 1016.31 1016.92 1017.56 1018.24 1018.96 1019.70 1020.42 1021.09 1021.68 1022.14 1022.46 1022.62 1022.63 1022.50 1022.26 1021.93 1021.55 1021.14 1020.72 1020.29 1019.87 1019.44 1019.02 1018.59 1018.16 1017.73
1004.30 1005.03 1005.75 1006.46 1007.18 1007.92 1008.68 1009.47 1010.29 1011.14 1012.00 1012.86 1013.70 1014.50 1015.25 1015.96 1016.63 1017.26 1017.89 1018.51 1019.14 1019.77 1020.40 1020.99 1021.53 1021.98 1022.33 1022.54 1022.61 1022.56 1022.39 1022.12 1021.77 1021.38 1020.95 1020.51 1020.06 1019.60 1019.15 1018.70 1018.25 1017.81 1017.36
1004.48 1005.25 1006.01 1006.75 1007.50 1008.26 1009.05 1009.88 1010.75 1011.65 1012.57 1013.49 1014.40 1015.27 1016.08 1016.84 1017.55 1018.20 1018.81 1019.40 1019.97 1020.52 1021.04 1021.52 1021.93 1022.27 1022.51 1022.64 1022.65 1022.56 1022.36 1022.09 1021.74 1021.34 1020.90 1020.44 1019.96 1019.46 1018.96 1018.45 1017.95 1017.45 1016.96
1004.92 1005.74 1006.54 1007.32 1008.09 1008.87 1009.68 1010.53 1011.41 1012.33 1013.28 1014.23 1015.16 1016.05 1016.89 1017.66 1018.36 1019.01 1019.60 1020.14 1020.65 1021.12 1021.55 1021.93 1022.26 1022.51 1022.68 1022.76 1022.74 1022.64 1022.45 1022.19 1021.85 1021.46 1021.03 1020.54 1020.03 1019.48 1018.91 1018.32 1017.73 1017.14 1016.56
1005.57 1006.45 1007.28 1008.09 1008.88 1009.67 1010.49 1011.33 1012.21 1013.12 1014.05 1014.98 1015.89 1016.77 1017.58 1018.33 1019.01 1019.62 1020.18 1020.68 1021.13 1021.54 1021.91 1022.23 1022.50 1022.70 1022.83 1022.89 1022.88 1022.79 1022.63 1022.39 1022.09 1021.73 1021.30 1020.81 1020.26 1019.65 1019.00 1018.32 1017.62 1016.91 1016.22
1006.38 1007.30 1008.16 1008.99 1009.79 1010.58 1011.38 1012.21 1013.06 1013.93 1014.82 1015.70 1016.56 1017.38 1018.14 1018.84 1019.48 1020.05 1020.57 1021.03 1021.45 1021.82 1022.15 1022.43 1022.67 1022.85 1022.97 1023.03 1023.04 1022.98 1022.85 1022.67 1022.41 1022.08 1021.67 1021.17 1020.60 1019.94 1019.21 1018.43 1017.62 1016.79 1015.97
1007.28 1008.22 1009.10 1009.93 1010.72 1011.51 1012.29 1013.09 1013.89 1014.72 1015.54 1016.36 1017.15 1017.90 1018.60 1019.24 1019.83 1020.36 1020.84 1021.27 1021.66 1022.01 1022.32 1022.59 1022.81 1022.98 1023.10 1023.17 1023.19 1023.16 1023.08 1022.94 1022.72 1022.43 1022.04 1021.55 1020.96 1020.27 1019.48 1018.62 1017.71 1016.77 1015.83
Thickness
5626 5627 5628 5628 5629 5630 5630 5631 5632 5632 5633 5633 5633 5634 5634 5635 5635 5635 5635 5634 5634 5635 5636 5637 5638 5639 5639 5640 5640 5640 5640 5640 5641 5641 5641 5642 5642 5642 5642 5642 5642 5643 5643
5616 5618 5619 5620 5620 5621 5622 5622 5623 5624 5624 5625 5625 5626 5626 5626 5627 5627 5627 5626 5626 5627 5628 5629 5629 5630 5631 5631 5632 5632 5632 5632 5633 5633 5633 5633 5634 5634 5634 5634 5635 5635 5635
5607 5609 5610 5611 5611 5611 5612 5613 5614 5614 5615 5616 5617 5617 5617 5618 5618 5618 5618 5618 5619 5618 5618 5619 5620 5621 5622 5622 5623 5623 5623 5623 5624 5624 5625 5625 5625 5626 5626 5626 5626 5627 5627
5598 5599 5600 5601 5601 5602 5603 5604 5605 5606 5607 5608 5609 5609 5609 5609 5610 5609 5609 5609 5610 5610 5610 5610 5610 5611 5612 5613 5613 5614 5614 5614 5615 5615 5616 5616 5617 5617 5618 5618 5618 5618 5619
5589 5589 5590 5591 5591 5592 5593 5594 5595 5597 5598 5598 5599 5599 5600 5600 5600 5600 5601 5601 5601 5601 5601 5601 5601 5601 5602 5602 5603 5603 5604 5605 5605 5606 5606 5607 5608 5608 5609 5609 5609 5610 5610
5579 5580 5581 5581 5582 5583 5584 5585 5585 5586 5587 5588 5589 5590 5590 5591 5591 5591 5592 5591 5591 5592 5592 5592 5592 5592 5592 5592 5592 5593 5593 5594 5595 5595 5596 5597 5598 5598 5599 5599 5600 5600 5601
5570 5571 5571 5572 5572 5573 5574 5575 5575 5576 5577 5577 5579 5581 5581 5582 5582 5581 5581 5581 5582 5582 5582 5582 5582 5582 5583 5582 5581 5581 5582 5583 5584 5585 5586 5587 5587 5588 5589 5589 5590 5590 5591
5560 5561 5562 5563 5562 5563 5564 5564 5564 5565 5566 5566 5568 5571 5574 5574 5573 5571 5571 5571 5572 5571 5572 5571 5572 5571 5572 5572 5571 5570 5571 5572 5573 5574 5575 5576 5576 5577 5578 5578 5579 5579 5580
5550 5551 5552 5553 5553 5553 5554 5554 5554 5555 5556 5555 5556 5558 5563 5568 5564 5562 5561 5560 5560 5560 5561 5561 5561 5560 5560 5560 5560 5560 5560 5561 5562 5562 5563 5564 5564 5565 5566 5567 5568 5568 5568
5541 5542 5542 5542 5542 5543 5543 5544 5544 5544 5544 5544 5544 5544 5545 5548 5550 5553 5551 5550 5549 5549 5549 5549 5549 5549 5549 5549 5549 5548 5549 5549 5549 5550 5551 5552 5553 5554 5554 5555 5555 5556 5556
5531 5531 5531 5532 5532 5532 5532 5532 5532 5532 5533 5533 5532 5533 5533 5533 5534 5538 5543 5541 5539 5538 5537 5537 5537 5537 5537 5537 5537 5537 5537 5537 5537 5538 5539 5540 5540 5541 5541 5542 5543 5543 5544
5520 5521 5521 5521 5521 5521 5521 5521 5521 5521 5521 5520 5520 5520 5521 5522 5524 5524 5528 5529 5529 5528 5526 5525 5525 5525 5525 5525 5525 5525 5524 5525 5525 5525 5526 5527 5527 5527 5527 5529 5530 5530 5531
5510 5510 5510 5510 5510 5510 5509 5509 5509 5509 5508 5508 5507 5507 5508 5509 5510 5510 5512 5515 5516 5516 5515 5515 5514 5514 5513 5513 5513 5513 5512 5512 5513 5513 5513 5514 5514 5514 5514 5515 5516 5517 5518
5500 5498 5498 5499 5499 5498 5498 5497 5497 5497 5496 5496 5496 5496 5496 5497 5497 5497 5498 5499 5502 5505 5506 5506 5504 5502 5501 5501 5501 5500 5501 5501 5501 5501 5501 5501 5501 5502 5502 5503 5504 5504 5505
5488 5487 5487 5488 5487 5486 5486 5485 5486 5485 5485 5485 5485 5485 5485 5485 5485 5485 5485 5485 5487 5492 5497 5496 5493 5491 5490 5489 5489 5489 5489 5490 5489 5489 5489 5489 5489 5490 5490 5490 5491 5492 5493
5477 5477 5477 5477 5476 5475 5475 5474 5474 5474 5474 5475 5474 5474 5474 5475 5474 5474 5473 5474 5474 5476 5481 5483 5481 5480 5478 5478 5477 5478 5478 5478 5478 5478 5478 5477 5478 5478 5478 5478 5479 5479 5481
5467 5467 5466 5465 5465 5465 5464 5464 5464 5464 5464 5464 5463 5463 5463 5463 5463 5463 5463 5463 5463 5463 5466 5468 5468 5468 5467 5467 5467 5467 5467 5467 5467 5466 5466 5465 5466 5466 5467 5467 5467 5468 5469
5456 5456 5455 5455 5455 5454 5454 5454 5454 5454 5454 5454 5453 5452 5452 5452 5452 5452 5452 5452 5453 5453 5454 5456 5456 5456 5456 5456 5457 5456 5456 5455 5455 5455 5454 5453 5454 5455 5455 5456 5456 5457 5458
5446 5445 5445 5445 5445 5445 5445 5445 5444 5444 5444 5443 5443 5442 5442 5441 5442 5442 5442 5442 5442 5443 5444 5445 5446 5445 5445 5445 5445 5445 5445 5444 5444 5443 5443 5443 5443 5444 5444 5445 5445 5447 5448
5435 5435 5435 5435 5435 5435 5435 5435 5434 5434 5434 5433 5433 5432 5431 5431 5431 5431 5431 5431 5432 5433 5434 5434 5435 5435 5434 5434 5434 5434 5434 5433 5433 5432 5432 5432 5433 5433 5434 5435 5436 5437 5438
5424 5424 5424 5425 5425 5426 5426 5426 5425 5424 5425 5424 5424 5422 5422 5421 5420 5420 5420 5421 5421 5422 5424 5424 5425 5425 5425 5424 5424 5423 5423 5423 5422 5422 5422 5423 5423 5424 5424 5425 5426 5427 5428
5415 5415 5415 5415 5416 5417 5417 5416 5415 5415 5415 5415 5415 5414 5413 5412 5411 5410 5410 5411 5411 5412 5415 5415 5416 5416 5416 5414 5413 5412 5412 5412 5413 5412 5411 5412 5412 5414 5415 5415 5416 5417 5419
5406 5406 5406 5406 5407 5408 5407 5407 5406 5406 5407 5407 5406 5406 5405 5405 5403 5403 5403 5403 5403 5403 5404 5405 5406 5407 5406 5405 5404 5403 5402 5402 5402 5401 5399 5402 5402 5404 5405 5406 5406 5408 5410
5398 5398 5398 5398 5398 5399 5398 5398 5398 5398 5398 5398 5398 5397 5397 5397 5396 5395 5395 5396 5396 5396 5396 5396 5398 5399 5397 5396 5395 5394 5393 5392 5392 5391 5390 5391 5393 5395 5396 5397 5398 5399 5401
5389 5389 5390 5390 5390 5391 5390 5390 5390 5390 5390 5391 5390 5389 5389 5389 5388 5387 5387 5388 5389 5389 5388 5387 5388 5389 5388 5387 5386 5384 5384 5383 5384 5384 5382 5382 5384 5385 5387 5389 5390 5390 5392
5381 5381 5382 5382 5383 5383 5383 5383 5382 5383 5383 5383 5383 5382 5382 5382 5382 5381 5381 5381 5382 5382 5381 5381 5381 5381 5381 5380 5378 5377 5377 5376 5376 5376 5376 5374 5374 5374 5379 5381 5381 5382 5383